Location: ??????
(38.0677°N, 22.9870°E)
Time: 16:27:42
(UTC+00:00)

Cosmos 968 Rocket - Pass Details

Date: 23 May 2024
Orbit: 737 x 769 km, 74.0° (Epoch: 23 June)

Event Time Altitude Azimuth Distance (km) Brightness Sun altitude
Exits shadow 00:22:21 66° 144° (SE) 806 3.4 -25.1°
Maximum altitude 00:22:48 71° 106° (ESE) 783 3.5 -25.1°
Drops below altitude 10° 00:27:53 10° 23° (NNE) 2,259 7.0 -24.6°
Sets 00:30:16 0° 21° (NNE) 3,190 8.0 -24.3°
